Weather History for Erzincan, Turkey

Change the Weather History Date:

Saturday, February 23, 2013

  Actual Average Record
Temperature  
Mean Temperature 39 °F -  
Max Temperature 45 °F 47 °F - ()
Min Temperature 33 °F 29 °F - ()
Degree Days  
Heating Degree Days 26    
Moisture  
Dew Point 33 °F    
Average Humidity 78    
Maximum Humidity 93    
Minimum Humidity 57    
Precipitation  
Precipitation 0.00 in 0.05 in - ()
Sea Level Pressure  
Sea Level Pressure 29.97 in    
Wind  
Wind Speed 4 mph ()    
Max Wind Speed 8 mph    
Max Gust Speed -    
Visibility 6.6 miles    
Events Rain    
T = Trace of Precipitation, MM = Missing Value Source: Averaged Metar Reports

Daily Weather History Graph

Daily Weather History Graph

Search for Another Location

Airport:

Trip Planner

Search our weather history database for the weather conditions in past years. The results will help you decide how hot, cold, wet, or windy it might be!

Date:

Astronomy

Feb. 23, 2013 Rise Set
Actual Time 6:03 AM EET 5:07 PM EET
Civil Twilight 5:36 AM EET 5:34 PM EET
Nautical Twilight 5:05 AM EET 6:05 PM EET
Astronomical Twilight 4:34 AM EET 6:37 PM EET
Moon 2:56 PM EET (2/23) 4:12 AM EET (2/23)
Length of Visible Light 11h 58m
Length of Day
11h 03m
Waxing Gibbous, 94% of the Moon is Illuminated
Feb 23
Waxing Gibbous
Feb 25
Full
Mar 4
Last Quarter
Mar 11
New
Mar 19
First Quarter

Hourly Weather History & Observations

Time (EET) Temp. Windchill Dew Point Humidity Pressure Visibility Wind Dir Wind Speed Gust Speed Precip Events Conditions
12:50 AM 39.2 °F 33.6 °F 28.4 °F 65% 29.95 in 6.2 mi South 8.1 mph - N/A   Mostly Cloudy
1:50 AM 39.2 °F 35.9 °F 30.2 °F 70% 29.95 in 6.2 mi SSW 4.6 mph - N/A   Mostly Cloudy
2:00 AM 39 °F - 29 °F 57%  in 12 mi SSW 4.6 mph - -   Partly Cloudy
2:50 AM 39.2 °F 35.0 °F 32.0 °F 75% 29.92 in 6.2 mi South 5.8 mph - N/A   Mostly Cloudy
3:50 AM 37.4 °F 32.1 °F 32.0 °F 81% 29.92 in 6.2 mi SW 6.9 mph - N/A   Mostly Cloudy
4:50 AM 37.4 °F 32.8 °F 32.0 °F 81% 29.95 in 6.2 mi WNW 5.8 mph - N/A   Mostly Cloudy
5:50 AM 33.8 °F - 30.2 °F 87% 29.92 in 6.2 mi Variable 1.2 mph - N/A   Mostly Cloudy
6:50 AM 33.8 °F 29.6 °F 30.2 °F 87% 29.95 in 6.2 mi WSW 4.6 mph - N/A   Mostly Cloudy
7:50 AM 37.4 °F 34.9 °F 32.0 °F 81% 29.95 in 6.2 mi WSW 3.5 mph - N/A   Mostly Cloudy
8:00 AM 37 °F - 33 °F 78%  in 6 mi WSW 3.5 mph - -   Partly Cloudy
8:50 AM 41.0 °F - 32.0 °F 70% 29.98 in 6.2 mi Variable 1.2 mph - N/A Rain Light Rain
9:50 AM 41.0 °F - 33.8 °F 76% 29.98 in 6.2 mi Calm Calm - N/A   Mostly Cloudy
10:50 AM 41.0 °F 38.0 °F 35.6 °F 81% 29.98 in 6.2 mi South 4.6 mph - N/A Rain Light Rain
11:50 AM 42.8 °F - 35.6 °F 76% 29.95 in 6.2 mi East 2.3 mph - N/A   Mostly Cloudy
12:50 PM 42.8 °F 41.1 °F 33.8 °F 70% 29.95 in 6.2 mi SSE 3.5 mph - N/A   Mostly Cloudy
1:50 PM 44.6 °F 42.2 °F 35.6 °F 71% 29.95 in 6.2 mi SSE 4.6 mph - N/A   Mostly Cloudy
2:00 PM 45 °F - 35 °F 59%  in 12 mi SSE 4.6 mph - -   Partly Cloudy
2:50 PM 44.6 °F 42.2 °F 35.6 °F 71% 29.95 in 6.2 mi SE 4.6 mph - N/A   Mostly Cloudy
3:50 PM 44.6 °F 43.1 °F 35.6 °F 71% 29.95 in 6.2 mi SE 3.5 mph - N/A   Mostly Cloudy
4:50 PM 44.6 °F - 35.6 °F 71% 29.98 in 6.2 mi Calm Calm - N/A   Mostly Cloudy
5:50 PM 39.2 °F - 33.8 °F 81% 29.98 in 6.2 mi Calm Calm - N/A   Mostly Cloudy
6:50 PM 39.2 °F - 35.6 °F 87% 30.01 in 6.2 mi Calm Calm - N/A   Mostly Cloudy
7:50 PM 37.4 °F - 33.8 °F 87% 30.01 in 6.2 mi West 2.3 mph - N/A   Mostly Cloudy
8:50 PM 35.6 °F - 33.8 °F 93% 30.04 in 6.2 mi West 1.2 mph - N/A   Mostly Cloudy
9:50 PM 37.4 °F - 33.8 °F 87% 30.04 in 6.2 mi Variable 2.3 mph - N/A   Mostly Cloudy
10:50 PM 37.4 °F 34.9 °F 33.8 °F 87% 30.04 in 6.2 mi NE 3.5 mph - N/A   Mostly Cloudy
11:50 PM 35.6 °F - 33.8 °F 93% 30.06 in 6.2 mi WSW 1.2 mph - N/A   Mostly Cloudy